When you browse on this site, cookies collect data to enhance your experience and personalize the content and advertising you see.
Visit our Privacy Policy to learn more. By continuing to use the site, you agree to this use of cookies and data.
  • In Hungary
  • List of Countries
  • For 7 days
  • Water Temperature
  • Weather Map
  • News
  • Weather Widgets
  • user-avatar
    Login

    Hourly Weather Yavirnyk

    Today, 30 March, Monday

    Time Temperature Precipitation Wind Pressure Humidity
    00:00 +2°C° 0 mm 2 mps 661 mmHg 99%
    01:00 +2°C° 0 mm 2 mps 661 mmHg 100%
    02:00 +1°C° 0 mm 0 mps 661 mmHg 84%
    03:00 +2°C° 0 mm 2 mps 661 mmHg 83%
    04:00 +2°C° 0 mm 2 mps 661 mmHg 83%
    05:00 +1°C° 0 mm 2 mps 661 mmHg 93%
    06:00 -1°C° 0 mm 2 mps 661 mmHg 100%
    07:00 -2°C° 0 mm 3 mps 661 mmHg 100%
    08:00 -2°C° 0.4 mm 4 mps 661 mmHg 100%
    09:00 -2°C° 0.4 mm 4 mps 661 mmHg 100%
    10:00 -1°C° 0.1 mm 3 mps 661 mmHg 100%
    11:00 -1°C° 0.3 mm 3 mps 662 mmHg 100%
    12:00 -2°C° 0.3 mm 4 mps 662 mmHg 100%
    13:00 -2°C° 0.7 mm 4 mps 661 mmHg 100%
    14:00 -2°C° 0.4 mm 5 mps 661 mmHg 100%
    15:00 -4°C° 0.5 mm 5 mps 662 mmHg 100%
    16:00 -4°C° 1.2 mm 4 mps 661 mmHg 100%
    17:00 -5°C° 0.5 mm 4 mps 661 mmHg 100%
    18:00 -6°C° 0.2 mm 5 mps 661 mmHg 100%
    19:00 -7°C° 0.1 mm 5 mps 662 mmHg 100%
    20:00 -7°C° 0 mm 4 mps 662 mmHg 100%
    21:00 -7°C° 0 mm 4 mps 662 mmHg 100%
    22:00 -8°C° 0.2 mm 4 mps 663 mmHg 100%
    23:00 -9°C° 0.2 mm 6 mps 663 mmHg 100%

    Tomorrow, 31 March, Tuesday

    Time Temperature Precipitation Wind Pressure Humidity
    00:00 -10°C° 0.1 mm 6 mps 662 mmHg 100%
    01:00 -11°C° 0 mm 5 mps 662 mmHg 100%
    02:00 -11°C° 0 mm 5 mps 662 mmHg 100%
    03:00 -11°C° 0 mm 4 mps 662 mmHg 100%
    04:00 -11°C° 0 mm 4 mps 662 mmHg 100%
    05:00 -12°C° 0 mm 5 mps 663 mmHg 100%
    06:00 -12°C° 0 mm 4 mps 662 mmHg 100%
    07:00 -12°C° 0 mm 4 mps 663 mmHg 100%
    08:00 -12°C° 0 mm 5 mps 663 mmHg 100%
    09:00 -11°C° 0 mm 5 mps 664 mmHg 100%
    10:00 -10°C° 0 mm 5 mps 665 mmHg 100%
    11:00 -8°C° 0.1 mm 5 mps 665 mmHg 100%
    12:00 -7°C° 0.2 mm 5 mps 666 mmHg 100%
    13:00 -5°C° 0.1 mm 4 mps 666 mmHg 100%
    14:00 -8°C° 0.4 mm 6 mps 666 mmHg 100%
    15:00 -7°C° 0.1 mm 5 mps 666 mmHg 100%
    16:00 -7°C° 0.1 mm 4 mps 666 mmHg 99%
    17:00 -7°C° 0.4 mm 4 mps 666 mmHg 100%
    18:00 -7°C° 0.2 mm 4 mps 666 mmHg 100%
    19:00 -7°C° 0 mm 3 mps 666 mmHg 100%
    20:00 -9°C° 0.6 mm 4 mps 666 mmHg 100%
    21:00 -9°C° 0.1 mm 4 mps 666 mmHg 100%
    22:00 -10°C° 0.1 mm 4 mps 666 mmHg 100%
    23:00 -9°C° 0 mm 3 mps 667 mmHg 100%

    Day after tomorrow, 1 April, Wednesday

    Time Temperature Precipitation Wind Pressure Humidity
    00:00 -9°C° 0.1 mm 3 mps 667 mmHg 100%
    01:00 -8°C° 0.3 mm 3 mps 666 mmHg 100%
    02:00 -8°C° 0.3 mm 2 mps 666 mmHg 100%
    03:00 -8°C° 0.1 mm 2 mps 666 mmHg 100%
    04:00 -8°C° 0 mm 1 mps 666 mmHg 100%
    05:00 -8°C° 0 mm 1 mps 666 mmHg 100%
    06:00 -9°C° 0 mm 1 mps 665 mmHg 100%
    07:00 -9°C° 0 mm 1 mps 666 mmHg 100%
    08:00 -8°C° 0 mm 1 mps 666 mmHg 100%
    09:00 -6°C° 0 mm 0 mps 666 mmHg 100%
    10:00 -4°C° 0 mm 1 mps 667 mmHg 97%
    11:00 -2°C° 0 mm 1 mps 667 mmHg 83%
    12:00 -3°C° 0 mm 2 mps 667 mmHg 78%
    13:00 -3°C° 0 mm 2 mps 668 mmHg 75%
    14:00 -2°C° 0 mm 2 mps 668 mmHg 76%
    15:00 -2°C° 0 mm 2 mps 667 mmHg 77%
    16:00 -2°C° 0 mm 2 mps 666 mmHg 74%
    17:00 -2°C° 0 mm 2 mps 666 mmHg 73%
    18:00 -1°C° 0 mm 1 mps 665 mmHg 87%
    19:00 -3°C° 0 mm 2 mps 665 mmHg 96%
    20:00 -4°C° 0 mm 2 mps 665 mmHg 100%
    21:00 -4°C° 0 mm 2 mps 665 mmHg 100%
    22:00 -6°C° 0 mm 3 mps 664 mmHg 100%
    23:00 -7°C° 0 mm 4 mps 664 mmHg 100%

    2 April, Thursday

    Time Temperature Precipitation Wind Pressure Humidity
    00:00 -7°C° 0 mm 5 mps 664 mmHg 100%
    01:00 -8°C° 0 mm 4 mps 663 mmHg 100%
    02:00 -8°C° 0 mm 4 mps 663 mmHg 100%
    03:00 -8°C° 0 mm 4 mps 662 mmHg 100%
    04:00 -8°C° 0 mm 5 mps 662 mmHg 100%
    05:00 -8°C° 0 mm 5 mps 662 mmHg 100%
    06:00 -10°C° 0 mm 5 mps 662 mmHg 100%
    07:00 -8°C° 0 mm 5 mps 662 mmHg 100%
    08:00 -7°C° 0 mm 5 mps 662 mmHg 100%
    09:00 -6°C° 0 mm 6 mps 663 mmHg 99%
    10:00 -5°C° 0 mm 6 mps 663 mmHg 99%
    11:00 -4°C° 0 mm 6 mps 663 mmHg 100%
    12:00 -3°C° 0 mm 7 mps 663 mmHg 98%
    13:00 -2°C° 0.1 mm 6 mps 664 mmHg 100%
    14:00 -2°C° 0.1 mm 6 mps 664 mmHg 96%
    15:00 -2°C° 0 mm 7 mps 664 mmHg 97%
    16:00 -2°C° 0 mm 6 mps 663 mmHg 98%
    17:00 -3°C° 0 mm 6 mps 663 mmHg 95%
    18:00 -3°C° 0.1 mm 6 mps 662 mmHg 98%
    19:00 -4°C° 0 mm 6 mps 662 mmHg 100%
    20:00 -5°C° 0 mm 6 mps 662 mmHg 100%
    21:00 -5°C° 0 mm 6 mps 662 mmHg 100%
    22:00 -4°C° 0 mm 6 mps 661 mmHg 100%
    23:00 -4°C° 0 mm 6 mps 662 mmHg 100%

    3 April, Friday

    Time Temperature Precipitation Wind Pressure Humidity
    00:00 -5°C° 0 mm 6 mps 661 mmHg 100%
    01:00 -5°C° 0 mm 6 mps 661 mmHg 100%
    02:00 -5°C° 0 mm 6 mps 661 mmHg 100%
    03:00 -5°C° 0 mm 6 mps 661 mmHg 100%
    04:00 -5°C° 0 mm 6 mps 660 mmHg 100%
    05:00 -5°C° 0 mm 6 mps 660 mmHg 100%
    06:00 -7°C° 0 mm 7 mps 660 mmHg 100%
    07:00 -7°C° 0 mm 7 mps 660 mmHg 100%
    08:00 -6°C° 0 mm 7 mps 660 mmHg 100%
    09:00 -4°C° 0 mm 7 mps 660 mmHg 100%
    10:00 -3°C° 0 mm 7 mps 661 mmHg 100%
    11:00 -2°C° 0 mm 8 mps 661 mmHg 100%
    12:00 -1°C° 0.1 mm 8 mps 661 mmHg 100%
    13:00 0°C° 0.4 mm 7 mps 661 mmHg 100%
    14:00 +1°C° 0.3 mm 6 mps 661 mmHg 100%
    15:00 +1°C° 0.8 mm 6 mps 661 mmHg 100%
    16:00 +1°C° 0.2 mm 6 mps 661 mmHg 100%
    17:00 0°C° 0.1 mm 7 mps 661 mmHg 100%
    18:00 -1°C° 0.2 mm 7 mps 661 mmHg 100%
    19:00 -2°C° 0.1 mm 7 mps 660 mmHg 100%
    20:00 -2°C° 0.2 mm 7 mps 661 mmHg 100%
    21:00 -1°C° 0.1 mm 5 mps 662 mmHg 100%
    22:00 0°C° 0.1 mm 3 mps 662 mmHg 100%
    23:00 -2°C° 1.7 mm 3 mps 663 mmHg 100%

    4 April, Saturday

    Time Temperature Precipitation Wind Pressure Humidity
    00:00 -3°C° 0.6 mm 4 mps 663 mmHg 100%
    01:00 -4°C° 0 mm 3 mps 663 mmHg 100%
    02:00 -3°C° 0 mm 2 mps 664 mmHg 100%
    03:00 -5°C° 0 mm 3 mps 664 mmHg 100%
    04:00 -6°C° 0 mm 3 mps 664 mmHg 100%
    05:00 -6°C° 0 mm 3 mps 664 mmHg 100%
    06:00 -7°C° 0 mm 3 mps 665 mmHg 100%
    07:00 -8°C° 0 mm 4 mps 665 mmHg 100%
    08:00 -8°C° 0 mm 5 mps 666 mmHg 100%
    09:00 -8°C° 0 mm 5 mps 667 mmHg 100%
    10:00 -7°C° 0 mm 5 mps 668 mmHg 100%
    11:00 -6°C° 0 mm 5 mps 668 mmHg 100%
    12:00 -4°C° 0.1 mm 4 mps 669 mmHg 100%
    13:00 -5°C° 0.1 mm 5 mps 670 mmHg 99%
    14:00 -4°C° 0.1 mm 5 mps 670 mmHg 98%
    15:00 -4°C° 0 mm 5 mps 671 mmHg 98%
    16:00 -3°C° 0.1 mm 4 mps 671 mmHg 100%
    17:00 -3°C° 0.4 mm 4 mps 671 mmHg 100%
    18:00 -4°C° 0.2 mm 4 mps 671 mmHg 100%
    19:00 -5°C° 0 mm 3 mps 671 mmHg 100%
    20:00 -4°C° 0.5 mm 2 mps 672 mmHg 100%
    21:00 -7°C° 0.6 mm 4 mps 672 mmHg 100%
    22:00 -6°C° 0.2 mm 3 mps 673 mmHg 100%
    23:00 -6°C° 0.1 mm 3 mps 673 mmHg 100%
    Show more